Regional Weather Roundup
Issued by NWS Northern Indiana

Home | Current Version | Previous Version | Graphics & Text | Print | Product List | Glossary On
Versions: 1 2 3 4 5 6 7 8 9 10 11 12 13 14 15 16 17 18 19 20 21 22 23 24 25 26 27 28 29 30 31 32 33 34 35 36 37 38 39 40 41 42 43 44 45 46 47 48 49 50
000
ASUS43 KIWX 300710
RWRIWX

KIWX WEATHER ROUNDUP
NATIONAL WEATHER SERVICE NORTHERN INDIANA
300 AM EDT TUE SEP 30 2014

NOTE: "FAIR" INDICATES FEW OR NO CLOUDS BELOW 12,000 FEET WITH NO
SIGNIFICANT WEATHER AND/OR OBSTRUCTIONS TO VISIBILITY.

* THESE STATIONS ARE NOT UNDER NWS QUALITY CONTROL. THEY ALSO MAY NOT
  REPORT WEATHER SUCH AS PRECIPITATION OR FOG.

INZ001>027-300800-
NORTHERN INDIANA

CITY           SKY/WX    TMP DP  RH WIND       PRES   REMARKS
GARY*          CLOUDY    57  52  82 N15       30.02S
VALPARAISO     CLOUDY    55  52  89 N13       30.00R
MICHIGAN CITY* CLOUDY    54  48  82 N13       30.01R
LAPORTE*       CLOUDY    55  55 100 N20       30.00R
KNOX*          CLOUDY    55  52  88 N12       29.98R
SOUTH BEND     NOT AVBL
MONTICELLO*    CLOUDY    58  56  94 N8        29.96R
LOGANSPORT*    CLOUDY    57  54  88 N6        29.96S
ROCHESTER*     CLOUDY    61  57  88 NW9       29.96R
WARSAW*        CLOUDY    57  55  94 NW6       29.95S
ANGOLA*        CLOUDY    61  57  88 N7        29.93R
FORT WAYNE     MOCLDY    60  57  89 N7        29.93S FOG
HUNTINGTON*    MOCLDY    59  57  94 NW3       29.93S
PERU/GRISSOM   CLOUDY    60  60 100 N6        29.95R
MARION*        CLEAR     55  51  86 NW5       29.94S

$$
INZ028>050-300800-
CENTRAL INDIANA

CITY           SKY/WX    TMP DP  RH WIND       PRES   REMARKS
LAFAYETTE      CLOUDY    59  57  93 N6        29.96R
KOKOMO*        MOCLDY    61  55  82 N7        29.96R
MUNCIE*        CLEAR     60  52  74 SW5       29.92S
INDIANAPOLIS   CLEAR     59  53  80 W6        29.93S

$$
MIZ043>046-050>051-056>058-064>065-071>073-077>080-300800-
SOUTHWEST LOWER MICHIGAN

CITY           SKY/WX    TMP DP  RH WIND       PRES   REMARKS
BATTLE CREEK   CLOUDY    53  50  89 N8        29.97R
COLDWATER*     CLOUDY    59  58  96 N13       29.94R
HILLSDALE*     LGT RAIN  60  60 100 N9        29.91F
HOLLAND        CLOUDY    50  47  89 N6        30.02R
GRAND RAPIDS   CLOUDY    50  48  93 N12       29.99R
KALAMAZOO      LGT RAIN  52  50  93 N13       29.98R
STURGIS*       CLOUDY    55  54  94 N9G22     29.95R
THREE RIVERS*  CLOUDY    54  51  89 N5        29.96F

$$
OHZ001>008-015>018-024>025-300800-
NORTHWEST OHIO

CITY           SKY/WX    TMP DP  RH WIND       PRES   REMARKS
WAUSEON*       MOCLDY    59  57  94 W6        29.90S
DEFIANCE       PTCLDY    60  55  83 CALM      29.91S
FINDLAY        CLEAR     56  51  84 SW5       29.88S
TOLEDO EXPRESS CLOUDY    61  55  81 W3        29.89R
TOLEDO METCALF CLOUDY    61  54  77 W6        29.89S
LIMA           PTCLDY    60  52  74 CALM      29.90F

$$
AND FOR LAKE MICHIGAN COASTAL AND OPEN LAKE BUOY OBSERVATIONS

STATION/POSITION TEMP    WIND        PRES    VSBY  WAVE
                 AIR SEA DIR/SP/G                  HT/PER
                 (F)     (DEG/KT/KT) (MB)    (MI)  (FT/S)
CALUMET HARBOR    55      10/ 10/ 17 1015.5S
MICHIGAN CITY     55     360/ 19/ 23   N/A
SAINT JOSEPH      55     350/ 12/ 19 1016.3R
SOUTH LAKE BUOY   52 62  360/ 19/ 25 1016.6R         8/ 8
4 MI NW BRIDGMAN  55 63   10/ 19/ 25   N/A           7/ 2
MICHIGAN CITY     56 65   20/ 16/ 21   N/A           8/ 2

$$
&&



USA.gov is the U.S. government's official web portal to all federal, state and local government web resources and services.